Location: Observatory Park - Geauga Park District
(41.5832°N, 81.0716°W)
Time: 01:29:19
(UTC-04:00)

Tiangong - Pass Details

Date: 02 October 2021
Orbit: 382 x 385 km, 41.5° (Epoch: 16 October)

Event Time Altitude Azimuth Distance (km) Brightness Sun altitude
Exits shadow 06:34:11 15° 274° (W) 1,146 2.8 -9.9°
Maximum altitude 06:36:43 82° 190° (S) 387 1.0 -9.4°
Drops below altitude 10° 06:39:52 10° 100° (E) 1,392 5.4 -8.8°
Sets 06:41:56 0° 99° (E) 2,242 6.9 -8.4°
